| time (UTC) | temp C | wind direction | speed KPH | gust KPH | rain 1hr cm | rain 24hr cm | rain mn cm | humidity % | barometer mb |
| 20260906080331 | 19 | 153 | 1.6 | 8.0 | 0.00 | 0.38 | 0.00 | 89 | 1015.5 |
| 20260906075825 | 19 | 143 | 1.6 | 6.4 | 0.00 | 0.38 | 0.00 | 89 | 1015.5 |
| 20260906075339 | 20 | 144 | 1.6 | 8.0 | 0.00 | 0.38 | 0.00 | 89 | 1015.5 |
| 20260906074900 | 20 | 147 | 1.6 | 8.0 | 0.00 | 0.38 | 0.00 | 89 | 1015.3 |
| 20260906074333 | 20 | 98 | 0.0 | 0.0 | 0.00 | 0.38 | 0.00 | 89 | 1015.3 |
| 20260906073840 | 20 | 94 | 0.0 | 1.6 | 0.00 | 0.38 | 0.00 | 89 | 1015.3 |
| 20260906073334 | 20 | 93 | 0.0 | 6.4 | 0.00 | 0.38 | 0.00 | 89 | 1015.4 |
| 20260906072841 | 20 | 85 | 3.2 | 6.4 | 0.00 | 0.38 | 0.00 | 89 | 1015.4 |
| 20260906072407 | 20 | 121 | 0.0 | 6.4 | 0.00 | 0.38 | 0.00 | 89 | 1015.3 |
| 20260906071841 | 20 | 126 | 1.6 | 9.7 | 0.00 | 0.38 | 0.00 | 89 | 1015.2 |
| 20260906071334 | 20 | 155 | 0.0 | 9.7 | 0.00 | 0.38 | 0.00 | 89 | 1015.2 |
| 20260906070841 | 20 | 134 | 3.2 | 6.4 | 0.00 | 0.38 | 0.00 | 89 | 1015.3 |
| 20260906070335 | 20 | 135 | 1.6 | 6.4 | 0.00 | 0.38 | 0.00 | 89 | 1015.3 |
| 20260906065834 | 20 | 132 | 0.0 | 6.4 | 0.00 | 0.38 | 0.00 | 89 | 1015.4 |
| 20260906065347 | 20 | 132 | 0.0 | 6.4 | 0.00 | 0.38 | 0.00 | 89 | 1015.4 |
| 20260906064836 | 20 | 137 | 1.6 | 8.0 | 0.00 | 0.38 | 0.00 | 89 | 1015.5 |
| 20260906064328 | 20 | 134 | 3.2 | 8.0 | 0.00 | 0.38 | 0.00 | 89 | 1015.4 |
| 20260906063833 | 20 | 132 | 0.0 | 0.0 | 0.00 | 0.38 | 0.00 | 90 | 1015.5 |
| 20260906063348 | 20 | 132 | 0.0 | 0.0 | 0.00 | 0.38 | 0.00 | 90 | 1015.5 |
| 20260906062828 | 20 | 132 | 0.0 | 4.8 | 0.00 | 0.38 | 0.00 | 90 | 1015.4 |
| 20260906062413 | 20 | 131 | 0.0 | 8.0 | 0.00 | 0.38 | 0.00 | 90 | 1015.4 |
| 20260906061833 | 20 | 145 | 0.0 | 4.8 | 0.00 | 0.38 | 0.00 | 90 | 1015.4 |
| 20260906061336 | 20 | 146 | 0.0 | 4.8 | 0.00 | 0.38 | 0.00 | 90 | 1015.4 |
| 20260906060843 | 20 | 146 | 1.6 | 4.8 | 0.00 | 0.38 | 0.00 | 90 | 1015.3 |
| 20260906060332 | 20 | 113 | 0.0 | 3.2 | 0.00 | 0.38 | 0.00 | 89 | 1015.3 |
| 20260906055851 | 20 | 111 | 0.0 | 3.2 | 0.00 | 0.38 | 0.00 | 89 | 1015.3 |
| 20260906055336 | 20 | 142 | 0.0 | 4.8 | 0.00 | 0.38 | 0.00 | 89 | 1015.1 |
| 20260906054844 | 20 | 165 | 0.0 | 6.4 | 0.00 | 0.38 | 0.00 | 90 | 1015.2 |
| 20260906054411 | 20 | 128 | 0.0 | 0.0 | 0.00 | 0.38 | 0.00 | 89 | 1015.1 |
| 20260906053902 | 20 | 128 | 0.0 | 4.8 | 0.00 | 0.38 | 0.00 | 90 | 1015.1 |
| 20260906053329 | 20 | 128 | 0.0 | 4.8 | 0.00 | 0.38 | 0.00 | 90 | 1015.1 |
| 20260906052838 | 20 | 128 | 1.6 | 4.8 | 0.00 | 0.38 | 0.00 | 90 | 1015.0 |
| 20260906052331 | 20 | 131 | 0.0 | 3.2 | 0.00 | 0.38 | 0.00 | 89 | 1015.0 |
| 20260906051840 | 20 | 131 | 0.0 | 4.8 | 0.00 | 0.38 | 0.00 | 89 | 1015.0 |
| 20260906051352 | 20 | 130 | 0.0 | 4.8 | 0.00 | 0.38 | 0.00 | 89 | 1015.0 |
| 20260906050839 | 20 | 130 | 0.0 | 6.4 | 0.00 | 0.38 | 0.00 | 89 | 1015.0 |
| 20260906050334 | 20 | 137 | 0.0 | 0.0 | 0.00 | 0.38 | 0.00 | 89 | 1014.9 |
| 20260906045902 | 20 | 131 | 0.0 | 4.8 | 0.00 | 0.38 | 0.00 | 89 | 1014.8 |
| 20260906045335 | 20 | 130 | 1.6 | 6.4 | 0.00 | 0.38 | 0.00 | 89 | 1014.9 |
| 20260906044842 | 20 | 131 | 1.6 | 6.4 | 0.00 | 0.38 | 0.00 | 89 | 1014.9 |
| 20260906044334 | 20 | 131 | 0.0 | 3.2 | 0.00 | 0.38 | 0.00 | 89 | 1014.7 |
| 20260906043842 | 20 | 132 | 0.0 | 6.4 | 0.00 | 0.38 | 0.00 | 89 | 1014.6 |
| 20260906043335 | 20 | 132 | 1.6 | 6.4 | 0.00 | 0.38 | 0.00 | 89 | 1014.7 |
| 20260906042841 | 20 | 130 | 0.0 | 3.2 | 0.00 | 0.38 | 0.00 | 89 | 1014.8 |
| 20260906042334 | 20 | 128 | 0.0 | 0.0 | 0.00 | 0.38 | 0.00 | 89 | 1014.7 |
| 20260906041841 | 20 | 126 | 0.0 | 0.0 | 0.00 | 0.38 | 0.00 | 89 | 1014.7 |
| 20260906041330 | 20 | 126 | 0.0 | 0.0 | 0.00 | 0.38 | 0.00 | 89 | 1014.8 |
| 20260906040837 | 20 | 126 | 0.0 | 0.0 | 0.00 | 0.38 | 0.00 | 89 | 1014.8 |
| 20260906040351 | 21 | 126 | 0.0 | 0.0 | 0.00 | 0.38 | 0.00 | 89 | 1014.7 |
| 20260906035833 | 21 | 126 | 0.0 | 0.0 | 0.00 | 0.38 | 0.38 | 89 | 1014.8 |
| 20260906035346 | 21 | 126 | 0.0 | 0.0 | 0.00 | 0.38 | 0.38 | 89 | 1014.8 |
| 20260906034855 | 21 | 128 | 0.0 | 0.0 | 0.00 | 0.38 | 0.38 | 89 | 1014.9 |
| 20260906034327 | 21 | 128 | 0.0 | 0.0 | 0.00 | 0.38 | 0.38 | 89 | 1014.8 |
| 20260906033851 | 21 | 129 | 0.0 | 3.2 | 0.00 | 0.38 | 0.38 | 89 | 1014.8 |
| 20260906033356 | 21 | 129 | 0.0 | 4.8 | 0.00 | 0.38 | 0.38 | 89 | 1014.8 |
| 20260906032843 | 21 | 129 | 1.6 | 8.0 | 0.00 | 0.38 | 0.38 | 89 | 1014.8 |
| 20260906032410 | 21 | 127 | 1.6 | 8.0 | 0.00 | 0.38 | 0.38 | 89 | 1014.7 |
| 20260906031857 | 21 | 127 | 1.6 | 9.7 | 0.00 | 0.38 | 0.38 | 89 | 1014.7 |
| 20260906031349 | 21 | 114 | 4.8 | 9.7 | 0.00 | 0.38 | 0.38 | 89 | 1014.7 |
| 20260906030853 | 21 | 142 | 3.2 | 8.0 | 0.00 | 0.38 | 0.38 | 89 | 1014.7 |
| 20260906030337 | 21 | 140 | 4.8 | 8.0 | 0.00 | 0.38 | 0.38 | 89 | 1014.6 |
| 20260906025836 | 21 | 141 | 3.2 | 8.0 | 0.00 | 0.38 | 0.38 | 89 | 1014.5 |
| 20260906025329 | 21 | 132 | 3.2 | 6.4 | 0.00 | 0.38 | 0.38 | 89 | 1014.5 |
| 20260906024836 | 21 | 143 | 1.6 | 12.9 | 0.00 | 0.38 | 0.38 | 89 | 1014.6 |
| 20260906024328 | 21 | 116 | 4.8 | 14.5 | 0.00 | 0.38 | 0.38 | 89 | 1014.5 |
| 20260906023837 | 21 | 155 | 4.8 | 14.5 | 0.00 | 0.38 | 0.38 | 89 | 1014.4 |
| 20260906023330 | 22 | 160 | 3.2 | 12.9 | 0.00 | 0.38 | 0.38 | 89 | 1014.3 |
| 20260906022834 | 22 | 134 | 3.2 | 12.9 | 0.00 | 0.38 | 0.38 | 89 | 1014.3 |
| 20260906022347 | 22 | 183 | 6.4 | 12.9 | 0.00 | 0.38 | 0.38 | 89 | 1014.3 |
| 20260906021854 | 22 | 159 | 4.8 | 8.0 | 0.00 | 0.38 | 0.38 | 89 | 1014.2 |
| 20260906021346 | 22 | 110 | 1.6 | 9.7 | 0.00 | 0.38 | 0.38 | 89 | 1014.2 |
| 20260906020833 | 22 | 146 | 3.2 | 8.0 | 0.00 | 0.38 | 0.38 | 89 | 1014.2 |
| 20260906020346 | 22 | 130 | 3.2 | 11.3 | 0.00 | 0.38 | 0.38 | 89 | 1014.2 |
| 20260906015833 | 22 | 141 | 3.2 | 12.9 | 0.00 | 0.38 | 0.38 | 89 | 1014.0 |
| 20260906015325 | 22 | 96 | 6.4 | 12.9 | 0.00 | 0.38 | 0.38 | 89 | 1013.9 |
| 20260906014833 | 22 | 122 | 3.2 | 11.3 | 0.00 | 0.38 | 0.38 | 89 | 1013.9 |
| 20260906014325 | 22 | 96 | 4.8 | 11.3 | 0.00 | 0.38 | 0.38 | 89 | 1013.9 |
| 20260906013834 | 22 | 139 | 3.2 | 16.1 | 0.00 | 0.38 | 0.38 | 89 | 1013.8 |
| 20260906013327 | 22 | 128 | 4.8 | 16.1 | 0.00 | 0.38 | 0.38 | 89 | 1013.5 |
| 20260906012835 | 22 | 159 | 3.2 | 9.7 | 0.00 | 0.38 | 0.38 | 89 | 1013.6 |
| 20260906012327 | 23 | 81 | 1.6 | 16.1 | 0.00 | 0.38 | 0.38 | 89 | 1013.7 |
| 20260906011831 | 23 | 132 | 6.4 | 16.1 | 0.00 | 0.38 | 0.38 | 89 | 1013.6 |
| 20260906011324 | 23 | 117 | 3.2 | 11.3 | 0.00 | 0.38 | 0.38 | 89 | 1013.4 |
| 20260906010833 | 23 | 155 | 3.2 | 11.3 | 0.00 | 0.38 | 0.38 | 89 | 1013.3 |
| 20260906010326 | 23 | 141 | 1.6 | 6.4 | 0.00 | 0.38 | 0.38 | 89 | 1013.4 |
| 20260906005831 | 23 | 138 | 1.6 | 8.0 | 0.00 | 0.38 | 0.38 | 89 | 1013.3 |
| 20260906005325 | 23 | 143 | 3.2 | 8.0 | 0.00 | 0.38 | 0.38 | 89 | 1013.1 |
| 20260906004838 | 23 | 141 | 1.6 | 8.0 | 0.00 | 0.38 | 0.38 | 90 | 1013.1 |
| 20260906004329 | 23 | 141 | 0.0 | 14.5 | 0.00 | 0.38 | 0.38 | 90 | 1013.0 |
| 20260906003835 | 23 | 146 | 3.2 | 14.5 | 0.00 | 0.38 | 0.38 | 90 | 1012.9 |
| 20260906003349 | 23 | 121 | 3.2 | 14.5 | 0.00 | 0.38 | 0.38 | 90 | 1012.9 |
| 20260906002836 | 23 | 111 | 3.2 | 16.1 | 0.25 | 0.38 | 0.38 | 90 | 1012.9 |
| 20260906002351 | 24 | 98 | 4.8 | 16.1 | 0.38 | 0.38 | 0.38 | 90 | 1012.8 |
| 20260906001830 | 24 | 84 | 4.8 | 11.3 | 0.38 | 0.38 | 0.38 | 90 | 1012.7 |
| 20260906001344 | 24 | 39 | 3.2 | 12.9 | 0.38 | 0.38 | 0.38 | 90 | 1012.6 |
| 20260906000825 | 24 | 171 | 3.2 | 12.9 | 0.38 | 0.38 | 0.38 | 90 | 1012.6 |
| 20260906000334 | 25 | 127 | 6.4 | 14.5 | 0.38 | 0.38 | 0.38 | 90 | 1012.6 |
| 20260905235833 | 25 | 103 | 3.2 | 12.9 | 0.38 | 0.38 | 0.38 | 90 | 1012.6 |
| 20260905235326 | 25 | 162 | 3.2 | 11.3 | 0.38 | 0.38 | 0.38 | 90 | 1012.5 |
| 20260905234833 | 25 | 148 | 3.2 | 8.0 | 0.38 | 0.38 | 0.38 | 90 | 1012.5 |
| 20260905234325 | 25 | 144 | 3.2 | 8.0 | 0.38 | 0.38 | 0.38 | 90 | 1012.6 |
| 20260905233833 | 25 | 150 | 3.2 | 11.3 | 0.38 | 0.38 | 0.38 | 89 | 1012.7 |
| 20260905233346 | 26 | 100 | 4.8 | 9.7 | 0.38 | 0.38 | 0.38 | 87 | 1012.7 |
| 20260905232826 | 27 | 5 | 3.2 | 17.7 | 0.10 | 0.10 | 0.10 | 87 | 1012.8 |
| 20260905232335 | 27 | 62 | 4.8 | 17.7 | 0.00 | 0.00 | 0.00 | 87 | 1012.4 |
| 20260905231857 | 27 | 120 | 3.2 | 9.7 | 0.00 | 0.00 | 0.00 | 87 | 1012.2 |
| 20260905231328 | 27 | 146 | 3.2 | 6.4 | 0.00 | 0.00 | 0.00 | 87 | 1011.7 |
| 20260905230836 | 27 | 142 | 1.6 | 3.2 | 0.00 | 0.00 | 0.00 | 87 | 1011.7 |
| 20260905230331 | 28 | 142 | 1.6 | 3.2 | 0.00 | 0.00 | 0.00 | 86 | 1011.7 |
| 20260905225849 | 28 | 142 | 0.0 | 6.4 | 0.00 | 0.00 | 0.00 | 85 | 1011.7 |
| 20260905225413 | 28 | 142 | 3.2 | 8.0 | 0.00 | 0.00 | 0.00 | 84 | 1011.7 |
| 20260905224853 | 28 | 142 | 4.8 | 8.0 | 0.00 | 0.00 | 0.00 | 83 | 1011.8 |
| 20260905224335 | 28 | 140 | 3.2 | 6.4 | 0.00 | 0.00 | 0.00 | 85 | 1011.8 |
| 20260905223840 | 28 | 137 | 1.6 | 6.4 | 0.00 | 0.00 | 0.00 | 87 | 1011.8 |
| 20260905223351 | 28 | 137 | 1.6 | 6.4 | 0.00 | 0.00 | 0.00 | 87 | 1011.8 |
| 20260905222901 | 28 | 136 | 0.0 | 4.8 | 0.00 | 0.00 | 0.00 | 85 | 1011.8 |
| 20260905222330 | 28 | 136 | 3.2 | 8.0 | 0.00 | 0.00 | 0.00 | 84 | 1011.8 |
| 20260905221837 | 28 | 137 | 4.8 | 9.7 | 0.00 | 0.00 | 0.00 | 83 | 1011.7 |
| 20260905221330 | 28 | 137 | 3.2 | 9.7 | 0.00 | 0.00 | 0.00 | 82 | 1011.6 |
| 20260905220834 | 29 | 153 | 4.8 | 8.0 | 0.00 | 0.00 | 0.00 | 82 | 1011.6 |
| 20260905220346 | 29 | 129 | 3.2 | 8.0 | 0.00 | 0.00 | 0.00 | 80 | 1011.5 |
| 20260905215843 | 29 | 169 | 3.2 | 11.3 | 0.00 | 0.00 | 0.00 | 80 | 1011.4 |
| 20260905215335 | 29 | 92 | 3.2 | 11.3 | 0.00 | 0.00 | 0.00 | 80 | 1011.3 |
| 20260905214842 | 29 | 109 | 3.2 | 6.4 | 0.00 | 0.00 | 0.00 | 80 | 1011.5 |
| 20260905214331 | 30 | 106 | 3.2 | 6.4 | 0.00 | 0.00 | 0.00 | 79 | 1011.5 |
| 20260905213835 | 29 | 119 | 1.6 | 11.3 | 0.00 | 0.00 | 0.00 | 82 | 1011.4 |
| 20260905213328 | 29 | 120 | 3.2 | 11.3 | 0.00 | 0.00 | 0.00 | 78 | 1011.4 |
| 20260905212837 | 30 | 84 | 6.4 | 9.7 | 0.00 | 0.00 | 0.00 | 79 | 1011.3 |
| 20260905212330 | 30 | 140 | 3.2 | 11.3 | 0.00 | 0.00 | 0.00 | 79 | 1011.3 |
| 20260905211839 | 30 | 129 | 1.6 | 9.7 | 0.00 | 0.00 | 0.00 | 79 | 1011.3 |
| 20260905211353 | 30 | 5 | 3.2 | 9.7 | 0.00 | 0.00 | 0.00 | 78 | 1011.3 |
| 20260905210840 | 30 | 67 | 1.6 | 14.5 | 0.00 | 0.00 | 0.00 | 80 | 1011.3 |
| 20260905210333 | 30 | 323 | 3.2 | 9.7 | 0.00 | 0.00 | 0.00 | 80 | 1011.2 |
| 20260905205901 | 30 | 63 | 3.2 | 9.7 | 0.00 | 0.00 | 0.00 | 80 | 1011.4 |
| 20260905205334 | 29 | 51 | 1.6 | 8.0 | 0.00 | 0.00 | 0.00 | 82 | 1011.5 |
| 20260905204851 | 29 | 54 | 3.2 | 8.0 | 0.00 | 0.00 | 0.00 | 79 | 1011.5 |
| 20260905204336 | 30 | 68 | 3.2 | 19.3 | 0.00 | 0.00 | 0.00 | 78 | 1011.4 |
| 20260905203852 | 30 | 144 | 6.4 | 19.3 | 0.00 | 0.00 | 0.00 | 79 | 1011.5 |
| 20260905203324 | 30 | 185 | 4.8 | 14.5 | 0.00 | 0.00 | 0.00 | 81 | 1011.5 |
| 20260905202833 | 30 | 302 | 6.4 | 14.5 | 0.00 | 0.00 | 0.00 | 78 | 1011.4 |
| 20260905202345 | 30 | 13 | 6.4 | 12.9 | 0.00 | 0.00 | 0.00 | 78 | 1011.6 |
| 20260905201901 | 30 | 22 | 1.6 | 8.0 | 0.00 | 0.00 | 0.00 | 80 | 1011.8 |
| 20260905201333 | 29 | 26 | 1.6 | 8.0 | 0.00 | 0.00 | 0.00 | 79 | 1012.0 |
| 20260905200840 | 30 | 5 | 3.2 | 6.4 | 0.00 | 0.00 | 0.00 | 77 | 1012.0 |
| 20260905200334 | 30 | 9 | 3.2 | 6.4 | 0.00 | 0.00 | 0.00 | 78 | 1012.0 |
| 20260905195833 | 30 | 5 | 3.2 | 6.4 | 0.00 | 0.00 | 0.00 | 78 | 1012.0 |
| 20260905195345 | 30 | 355 | 3.2 | 9.7 | 0.00 | 0.00 | 0.00 | 77 | 1012.0 |
| 20260905194826 | 30 | 351 | 4.8 | 9.7 | 0.00 | 0.00 | 0.00 | 77 | 1012.1 |
| 20260905194400 | 30 | 338 | 4.8 | 8.0 | 0.00 | 0.00 | 0.00 | 77 | 1012.0 |
| 20260905193846 | 30 | 33 | 3.2 | 9.7 | 0.00 | 0.00 | 0.00 | 76 | 1012.0 |
| 20260905193335 | 30 | 5 | 4.8 | 9.7 | 0.00 | 0.00 | 0.00 | 77 | 1012.0 |
| 20260905192838 | 29 | 15 | 3.2 | 9.7 | 0.00 | 0.00 | 0.00 | 80 | 1012.1 |
| 20260905192350 | 29 | 355 | 4.8 | 9.7 | 0.00 | 0.00 | 0.00 | 80 | 1012.2 |
| 20260905191834 | 29 | 10 | 3.2 | 8.0 | 0.00 | 0.00 | 0.00 | 79 | 1012.4 |
| 20260905191325 | 29 | 355 | 3.2 | 12.9 | 0.00 | 0.00 | 0.00 | 76 | 1012.5 |
| 20260905190857 | 30 | 344 | 4.8 | 12.9 | 0.00 | 0.00 | 0.00 | 76 | 1012.5 |
| 20260905190347 | 30 | 306 | 4.8 | 12.9 | 0.00 | 0.00 | 0.00 | 79 | 1012.5 |
| 20260905185858 | 30 | 336 | 6.4 | 12.9 | 0.00 | 0.20 | 0.00 | 75 | 1012.5 |
| 20260905185329 | 30 | 297 | 4.8 | 12.9 | 0.00 | 0.20 | 0.00 | 76 | 1012.5 |
| 20260905184835 | 30 | 5 | 6.4 | 12.9 | 0.00 | 0.20 | 0.00 | 75 | 1012.6 |
| 20260905184325 | 30 | 293 | 6.4 | 12.9 | 0.00 | 0.20 | 0.00 | 76 | 1012.6 |
| 20260905183847 | 30 | 319 | 6.4 | 12.9 | 0.00 | 0.20 | 0.00 | 78 | 1012.6 |
| 20260905183356 | 30 | 329 | 6.4 | 14.5 | 0.00 | 0.20 | 0.00 | 78 | 1012.6 |
| 20260905182841 | 30 | 330 | 8.0 | 14.5 | 0.00 | 0.20 | 0.00 | 76 | 1012.7 |
| 20260905182333 | 30 | 300 | 6.4 | 14.5 | 0.00 | 0.20 | 0.00 | 79 | 1012.7 |
| 20260905181837 | 30 | 263 | 6.4 | 14.5 | 0.00 | 0.20 | 0.00 | 75 | 1012.6 |
| 20260905181328 | 29 | 288 | 8.0 | 14.5 | 0.00 | 0.20 | 0.00 | 78 | 1012.7 |
| 20260905180831 | 29 | 244 | 8.0 | 14.5 | 0.00 | 0.20 | 0.00 | 77 | 1012.7 |
| 20260905180338 | 28 | 297 | 6.4 | 12.9 | 0.00 | 0.20 | 0.00 | 78 | 1012.7 |
| 20260905175836 | 28 | 332 | 4.8 | 9.7 | 0.00 | 0.20 | 0.00 | 80 | 1012.8 |
| 20260905175327 | 28 | 331 | 6.4 | 9.7 | 0.00 | 0.20 | 0.00 | 81 | 1013.0 |
| 20260905174836 | 28 | 326 | 8.0 | 9.7 | 0.00 | 0.20 | 0.00 | 80 | 1012.9 |
| 20260905174327 | 28 | 317 | 4.8 | 8.0 | 0.00 | 0.20 | 0.00 | 82 | 1013.0 |
| 20260905173833 | 27 | 273 | 3.2 | 9.7 | 0.00 | 0.20 | 0.00 | 82 | 1013.0 |
| 20260905173335 | 27 | 280 | 4.8 | 11.3 | 0.00 | 0.20 | 0.00 | 82 | 1013.1 |
| 20260905172839 | 27 | 263 | 6.4 | 11.3 | 0.00 | 0.20 | 0.00 | 81 | 1013.2 |
| 20260905172328 | 27 | 315 | 4.8 | 8.0 | 0.00 | 0.20 | 0.00 | 85 | 1013.5 |
| 20260905171835 | 26 | 243 | 3.2 | 6.4 | 0.00 | 0.20 | 0.00 | 87 | 1013.4 |
| 20260905171327 | 26 | 242 | 1.6 | 4.8 | 0.00 | 0.20 | 0.00 | 86 | 1013.6 |
| 20260905170833 | 26 | 242 | 0.0 | 4.8 | 0.00 | 0.20 | 0.00 | 85 | 1013.7 |
| 20260905170346 | 26 | 242 | 1.6 | 14.5 | 0.00 | 0.20 | 0.00 | 84 | 1013.8 |
| 20260905165836 | 26 | 240 | 6.4 | 14.5 | 0.00 | 0.20 | 0.00 | 83 | 1013.6 |
| 20260905165348 | 27 | 298 | 3.2 | 16.1 | 0.00 | 0.20 | 0.00 | 84 | 1013.5 |
| 20260905164841 | 27 | 248 | 3.2 | 16.1 | 0.00 | 0.20 | 0.00 | 84 | 1013.6 |
| 20260905164334 | 26 | 261 | 8.0 | 16.1 | 0.00 | 0.20 | 0.00 | 84 | 1013.7 |
| 20260905163842 | 26 | 289 | 6.4 | 12.9 | 0.00 | 0.20 | 0.00 | 85 | 1013.9 |
| 20260905163353 | 26 | 246 | 4.8 | 14.5 | 0.00 | 0.20 | 0.00 | 86 | 1013.9 |
| 20260905162833 | 25 | 242 | 4.8 | 11.3 | 0.00 | 0.20 | 0.00 | 86 | 1014.0 |
| 20260905162327 | 25 | 235 | 3.2 | 14.5 | 0.00 | 0.20 | 0.00 | 86 | 1014.1 |
| 20260905161835 | 25 | 182 | 4.8 | 14.5 | 0.00 | 0.20 | 0.00 | 87 | 1014.2 |
| 20260905161350 | 25 | 306 | 4.8 | 16.1 | 0.00 | 0.20 | 0.00 | 86 | 1014.2 |
| 20260905160826 | 25 | 282 | 8.0 | 16.1 | 0.00 | 0.20 | 0.00 | 85 | 1014.1 |
| 20260905160339 | 25 | 238 | 6.4 | 16.1 | 0.00 | 0.20 | 0.00 | 85 | 1014.1 |
| 20260905155839 | 25 | 229 | 6.4 | 16.1 | 0.00 | 0.20 | 0.00 | 86 | 1014.0 |
| 20260905155350 | 25 | 234 | 8.0 | 12.9 | 0.00 | 0.20 | 0.00 | 85 | 1014.0 |
| 20260905154852 | 25 | 260 | 1.6 | 14.5 | 0.00 | 0.20 | 0.00 | 88 | 1014.1 |
| 20260905154336 | 25 | 260 | 6.4 | 14.5 | 0.00 | 0.20 | 0.00 | 86 | 1014.1 |
| 20260905153844 | 25 | 302 | 8.0 | 14.5 | 0.00 | 0.20 | 0.00 | 87 | 1014.0 |
| 20260905153359 | 25 | 281 | 6.4 | 11.3 | 0.00 | 0.20 | 0.00 | 87 | 1013.9 |
| 20260905152854 | 25 | 277 | 4.8 | 11.3 | 0.00 | 0.20 | 0.00 | 88 | 1013.8 |
| 20260905152347 | 24 | 257 | 3.2 | 11.3 | 0.00 | 0.20 | 0.00 | 87 | 1013.8 |
| 20260905151900 | 24 | 290 | 3.2 | 14.5 | 0.00 | 0.20 | 0.00 | 87 | 1014.0 |
| 20260905151333 | 24 | 223 | 4.8 | 14.5 | 0.00 | 0.20 | 0.00 | 87 | 1014.0 |
| 20260905150841 | 24 | 244 | 3.2 | 16.1 | 0.00 | 0.20 | 0.00 | 87 | 1014.2 |
| 20260905150333 | 24 | 274 | 9.7 | 16.1 | 0.00 | 0.20 | 0.00 | 86 | 1014.3 |
| 20260905145827 | 24 | 262 | 3.2 | 9.7 | 0.00 | 0.20 | 0.00 | 87 | 1013.9 |
| 20260905145341 | 23 | 265 | 4.8 | 9.7 | 0.00 | 0.20 | 0.00 | 88 | 1013.9 |
| 20260905144831 | 23 | 192 | 1.6 | 4.8 | 0.00 | 0.20 | 0.00 | 89 | 1014.1 |
| 20260905144325 | 23 | 133 | 0.0 | 1.6 | 0.00 | 0.20 | 0.00 | 89 | 1014.1 |
| 20260905143835 | 22 | 130 | 0.0 | 0.0 | 0.00 | 0.20 | 0.00 | 89 | 1014.2 |
| 20260905143347 | 22 | 129 | 0.0 | 4.8 | 0.00 | 0.20 | 0.00 | 89 | 1014.1 |
| 20260905142834 | 22 | 129 | 1.6 | 4.8 | 0.00 | 0.20 | 0.00 | 89 | 1014.0 |
| 20260905142348 | 22 | 88 | 0.0 | 6.4 | 0.00 | 0.20 | 0.00 | 89 | 1014.0 |
| 20260905141844 | 22 | 87 | 1.6 | 6.4 | 0.00 | 0.20 | 0.00 | 88 | 1014.2 |
| 20260905141337 | 22 | 279 | 1.6 | 11.3 | 0.00 | 0.20 | 0.00 | 88 | 1014.1 |
| 20260905140844 | 22 | 229 | 3.2 | 11.3 | 0.00 | 0.20 | 0.00 | 88 | 1013.7 |
| 20260905140349 | 22 | 225 | 1.6 | 9.7 | 0.00 | 0.20 | 0.00 | 89 | 1013.5 |
| 20260905135839 | 22 | 254 | 3.2 | 9.7 | 0.00 | 0.20 | 0.00 | 89 | 1013.3 |
| 20260905135350 | 22 | 254 | 1.6 | 12.9 | 0.00 | 0.20 | 0.00 | 89 | 1013.4 |
| 20260905134827 | 22 | 212 | 6.4 | 14.5 | 0.00 | 0.20 | 0.00 | 88 | 1013.3 |
| 20260905134333 | 22 | 184 | 8.0 | 14.5 | 0.00 | 0.20 | 0.00 | 88 | 1013.1 |
| 20260905133837 | 22 | 236 | 6.4 | 16.1 | 0.00 | 0.20 | 0.00 | 89 | 1013.1 |
| 20260905133328 | 22 | 245 | 3.2 | 16.1 | 0.00 | 0.20 | 0.00 | 89 | 1013.2 |
| 20260905132835 | 22 | 236 | 8.0 | 16.1 | 0.00 | 0.20 | 0.00 | 89 | 1013.3 |
| 20260905132347 | 22 | 271 | 6.4 | 11.3 | 0.00 | 0.20 | 0.00 | 89 | 1013.2 |
| 20260905131900 | 21 | 232 | 6.4 | 20.9 | 0.00 | 0.20 | 0.00 | 89 | 1013.1 |
| 20260905131350 | 21 | 250 | 6.4 | 19.3 | 0.00 | 0.20 | 0.00 | 89 | 1013.1 |
| 20260905130828 | 21 | 204 | 4.8 | 14.5 | 0.00 | 0.20 | 0.00 | 89 | 1013.0 |
| 20260905130335 | 21 | 260 | 6.4 | 17.7 | 0.00 | 0.20 | 0.00 | 89 | 1013.3 |
| 20260905125904 | 21 | 240 | 4.8 | 17.7 | 0.00 | 0.20 | 0.00 | 89 | 1013.3 |
| 20260905125334 | 21 | 256 | 6.4 | 12.9 | 0.00 | 0.20 | 0.00 | 89 | 1013.3 |
| 20260905124839 | 21 | 101 | 4.8 | 11.3 | 0.00 | 0.20 | 0.00 | 89 | 1013.2 |
| 20260905124329 | 21 | 205 | 3.2 | 12.9 | 0.00 | 0.20 | 0.00 | 89 | 1013.2 |
| 20260905123837 | 21 | 237 | 4.8 | 16.1 | 0.00 | 0.20 | 0.00 | 89 | 1013.3 |
| 20260905123348 | 21 | 259 | 4.8 | 16.1 | 0.00 | 0.20 | 0.00 | 89 | 1013.4 |
| 20260905122843 | 21 | 200 | 0.0 | 14.5 | 0.00 | 0.20 | 0.00 | 89 | 1013.3 |
| 20260905122333 | 21 | 258 | 4.8 | 14.5 | 0.00 | 0.20 | 0.00 | 89 | 1013.4 |
| 20260905121839 | 21 | 200 | 4.8 | 14.5 | 0.00 | 0.20 | 0.00 | 89 | 1013.4 |
| 20260905121351 | 20 | 266 | 6.4 | 12.9 | 0.00 | 0.20 | 0.00 | 89 | 1013.4 |
| 20260905120837 | 20 | 233 | 3.2 | 9.7 | 0.00 | 0.20 | 0.00 | 89 | 1013.5 |
| 20260905120329 | 20 | 180 | 4.8 | 9.7 | 0.00 | 0.20 | 0.00 | 89 | 1013.3 |
| 20260905115827 | 20 | 234 | 3.2 | 6.4 | 0.00 | 0.20 | 0.00 | 89 | 1013.4 |
| 20260905115333 | 20 | 176 | 1.6 | 9.7 | 0.00 | 0.20 | 0.00 | 89 | 1013.5 |
| 20260905114839 | 20 | 209 | 3.2 | 9.7 | 0.00 | 0.20 | 0.00 | 89 | 1013.6 |
| 20260905114330 | 20 | 205 | 3.2 | 6.4 | 0.00 | 0.20 | 0.00 | 89 | 1013.5 |
| 20260905113837 | 20 | 205 | 1.6 | 6.4 | 0.00 | 0.20 | 0.00 | 89 | 1013.5 |
| 20260905113348 | 20 | 214 | 1.6 | 6.4 | 0.00 | 0.20 | 0.00 | 89 | 1013.5 |
| 20260905112826 | 21 | 196 | 3.2 | 11.3 | 0.00 | 0.20 | 0.00 | 89 | 1013.5 |
| 20260905112357 | 21 | 254 | 4.8 | 11.3 | 0.00 | 0.20 | 0.00 | 89 | 1013.6 |
| 20260905111837 | 21 | 192 | 3.2 | 6.4 | 0.00 | 0.20 | 0.00 | 89 | 1013.7 |
| 20260905111329 | 21 | 200 | 1.6 | 12.9 | 0.00 | 0.20 | 0.00 | 89 | 1013.5 |
| 20260905110836 | 21 | 153 | 6.4 | 12.9 | 0.00 | 0.20 | 0.00 | 89 | 1013.4 |
| 20260905110328 | 21 | 237 | 3.2 | 16.1 | 0.00 | 0.20 | 0.00 | 89 | 1013.6 |
| 20260905105856 | 21 | 158 | 4.8 | 16.1 | 0.00 | 0.20 | 0.00 | 89 | 1013.4 |
| 20260905105349 | 21 | 171 | 3.2 | 12.9 | 0.00 | 0.20 | 0.00 | 89 | 1013.4 |
| 20260905104836 | 21 | 148 | 4.8 | 12.9 | 0.00 | 0.20 | 0.00 | 89 | 1013.4 |
| 20260905104329 | 21 | 162 | 4.8 | 11.3 | 0.00 | 0.20 | 0.00 | 89 | 1013.3 |
| 20260905103833 | 21 | 233 | 3.2 | 17.7 | 0.00 | 0.20 | 0.00 | 89 | 1013.3 |
| 20260905103326 | 21 | 234 | 6.4 | 17.7 | 0.00 | 0.20 | 0.00 | 89 | 1013.5 |
| 20260905102825 | 21 | 138 | 6.4 | 16.1 | 0.00 | 0.20 | 0.00 | 89 | 1013.4 |
| 20260905102338 | 21 | 168 | 1.6 | 14.5 | 0.00 | 0.20 | 0.00 | 89 | 1013.3 |
| 20260905101843 | 21 | 155 | 6.4 | 14.5 | 0.00 | 0.20 | 0.00 | 89 | 1013.4 |
| 20260905101353 | 21 | 169 | 1.6 | 11.3 | 0.00 | 0.20 | 0.00 | 89 | 1013.5 |
| 20260905100831 | 21 | 167 | 4.8 | 11.3 | 0.00 | 0.20 | 0.00 | 89 | 1013.6 |
| 20260905100339 | 21 | 128 | 6.4 | 14.5 | 0.00 | 0.20 | 0.00 | 89 | 1013.7 |
| 20260905095837 | 21 | 183 | 3.2 | 16.1 | 0.00 | 0.20 | 0.00 | 89 | 1013.6 |
| 20260905095326 | 21 | 137 | 4.8 | 12.9 | 0.00 | 0.20 | 0.00 | 89 | 1013.7 |
| 20260905094835 | 21 | 136 | 8.0 | 14.5 | 0.00 | 0.20 | 0.00 | 88 | 1013.7 |
| 20260905094338 | 21 | 132 | 4.8 | 16.1 | 0.00 | 0.20 | 0.00 | 88 | 1013.7 |
| 20260905093844 | 21 | 180 | 9.7 | 19.3 | 0.00 | 0.20 | 0.00 | 88 | 1013.7 |
| 20260905093356 | 21 | 156 | 8.0 | 19.3 | 0.00 | 0.20 | 0.00 | 89 | 1013.6 |
| 20260905092837 | 22 | 132 | 4.8 | 17.7 | 0.00 | 0.20 | 0.00 | 88 | 1013.9 |
| 20260905092330 | 22 | 111 | 9.7 | 20.9 | 0.00 | 0.20 | 0.00 | 88 | 1013.6 |
| 20260905091836 | 22 | 146 | 9.7 | 22.5 | 0.00 | 0.20 | 0.00 | 89 | 1013.3 |
| 20260905091349 | 22 | 135 | 8.0 | 27.4 | 0.00 | 0.20 | 0.00 | 88 | 1013.3 |
| 20260905090835 | 22 | 128 | 12.9 | 27.4 | 0.00 | 0.20 | 0.00 | 88 | 1013.5 |
| 20260905090348 | 23 | 142 | 6.4 | 24.1 | 0.00 | 0.20 | 0.00 | 88 | 1013.4 |
| 20260905085838 | 23 | 163 | 11.3 | 25.7 | 0.00 | 0.20 | 0.00 | 88 | 1013.3 |
| 20260905085347 | 23 | 130 | 6.4 | 11.3 | 0.00 | 0.20 | 0.00 | 88 | 1013.1 |
| 20260905084835 | 23 | 235 | 0.0 | 0.0 | 0.00 | 0.20 | 0.00 | 88 | 1012.5 |
| 20260905084328 | 23 | 237 | 0.0 | 0.0 | 0.00 | 0.20 | 0.00 | 88 | 1012.4 |
| 20260905083837 | 23 | 237 | 0.0 | 0.0 | 0.00 | 0.20 | 0.00 | 88 | 1012.3 |
| 20260905083329 | 23 | 237 | 0.0 | 0.0 | 0.00 | 0.20 | 0.00 | 88 | 1012.4 |
| 20260905082838 | 23 | 237 | 0.0 | 0.0 | 0.00 | 0.20 | 0.00 | 88 | 1012.4 |
| 20260905082331 | 23 | 237 | 0.0 | 0.0 | 0.00 | 0.20 | 0.00 | 88 | 1012.5 |
| 20260905081840 | 23 | 237 | 0.0 | 0.0 | 0.00 | 0.20 | 0.00 | 88 | 1012.4 |
| 20260905081349 | 23 | 237 | 0.0 | 0.0 | 0.00 | 0.20 | 0.00 | 88 | 1012.2 |
| 20260905080836 | 23 | 237 | 0.0 | 0.0 | 0.00 | 0.20 | 0.00 | 88 | 1012.4 |